Weather in Volyshovo

Russia / Pskov Oblast     57°37′16″N   29°41′09″E
temp.,
°C
wind,
m/s
gust,
m/s
humid.,
%
clouds,
%
prec.,
mm/h
press.,
hPa
HPBL,
m
10 august, wed
wed1000:00+12nne11925 0.0 102610
03:00+11n22944 0.0 102618
06:00+11n22935 0.0 102720
09:00+16n237723 0.0 1027274
12:00+20nne334950 0.1 10271783
15:00+21nne224278 0.1 10262177
18:00+21ne12457 0.0 10251912
21:00+15sse11651 0.0 102611
11 august, thu
thu1100:00+13ssw22735 0.0 102611
03:00+12wsw12743 0.0 102611
06:00+12sw11785 0.0 102711
09:00+18sw22595 0.0 1026297
12:00+22sw23455 0.0 10261533
15:00+24wsw33415 0.0 10251768
18:00+23w33515 0.0 10241365
21:00+17wsw2267100 0.0 102426
12 august, fri
fri1200:00+15sw3465100 0.0 102458
03:00+14wsw357199 0.0 102578
06:00+14wsw3575100 0.0 102585
09:00+19wsw356265 0.0 1025289
12:00+24wsw34465 0.0 10251156
15:00+25w344196 0.0 10241426
18:00+24wsw345297 0.0 1023525
21:00+18sw3366100 0.0 102340
13 august, sat
sat1300:00+17wsw2265100 0.0 102423
03:00+15wsw227651 0.0 102412
06:00+15sw11836 0.0 102411
09:00+21wsw126370 0.0 1024290
12:00+25w124956 0.0 10231094
15:00+27nw114415 0.0 10221615
18:00+26ne1151100 0.0 10211252
21:00+20se1171100 0.0 102111
14 august, sun
sun1400:00+18sw1175100 0.0 102011
03:00+17s1176100 0.0 102011
06:00+16s1179100 0.0 102011
09:00+21se1164100 0.0 1019201
12:00+25ese1152100 0.0 1019758
15:00+26e1245100 0.0 10181582
18:00+26ne225149 0.0 10171586
21:00+20ene117010 0.0 101711